Content
SEND FEEDBACK

Daily
Averages
Monthly
Summary
United States of America

STATEN ISLAND, NEW YORK


Home > North America > United States > New York
Elevation: 152 feet     Latitude: 40 35N     Longitude: 074 09W

WEATHER
 
SELECT A DAY
Number of Records: 189,740;   Date Range: 1/1/95 - 8/12/14
 
SHARE

PRINT THIS DATA

[ ← Previous Day ]
WEATHER ALMANAC - JANUARY 29, 2013
[ Next Day → ]
[ °C ]   °F
Weather ElementAverageHighLow
Temperature43.5 °F52 °F (10:51 am)36 °F (1:51 am)
Dewpoint39.2 °F42.1 °F (9:51 am)34 °F (1:51 am)
Humidity85.6 %97 % (4:51 am)63 % (10:51 am)
Barometer30.10 in30.13 in (9:51 am)30.01 in (1:51 am)
Wind Speed3.7 mph11.5 mph (1:51 pm)
Wind Gust16.1 mph (3:43 pm)
Weather ElementAverage
Visibility5.5 mi
Wind DirectionENE (71 °)

Weather ElementTotal
Precipitation0.08 in
Heating Degree Days21 (Base 65)
Averaged from 29 records on January 29, 2013
WEATHER CONDITIONS BREAKOUT
WIND DIRECTION BREAKOUT
WEATHER BY HOUR - JANUARY 29, 2013
[ °C ]   °F
Local TimeTemperatureDewpointHumidityBarometerVisibilityWind DirectionWind SpeedGust SpeedPrecipitationEventsConditions
1:51 AM36.0 °F34.0 °F93 %30.01 in5.0 miWSW (240°)6.9 mphOvercast
2:51 AM37.0 °F35.1 °F93 %30.01 in7.0 miWSW (240°)3.5 mphOvercast
3:51 AM37.0 °F36.0 °F96 %30.01 in7.0 miSW (220°)6.9 mphOvercast
4:51 AM37.9 °F37.0 °F97 %30.04 in7.0 miCalmOvercast
5:51 AM37.9 °F36.0 °F93 %30.08 in7.0 miCalmOvercast
6:51 AM37.9 °F36.0 °F93 %30.09 in6.0 miCalmOvercast
7:51 AM42.8 °F39.2 °F87 %30.11 in6.0 miCalmOvercast
8:51 AM43.0 °F39.9 °F89 %30.11 in6.0 miSSW (200°)3.5 mphOvercast
9:51 AM48.0 °F42.1 °F80 %30.13 in7.0 miCalmMostly Cloudy
10:51 AM52.0 °F39.9 °F63 %30.13 in9.0 miNorth (10°)5.8 mphMostly Cloudy
11:51 AM52.0 °F39.9 °F63 %30.10 in10.0 miEast (90°)5.8 mphMostly Cloudy
12:51 PM51.1 °F39.0 °F63 %30.10 in10.0 miESE (110°)8.1 mphMostly Cloudy
1:51 PM45.0 °F39.0 °F80 %30.09 in6.0 miESE (120°)11.5 mphHaze
2:51 PM45.0 °F39.0 °F80 %30.11 in6.0 miVariable6.9 mphHaze
3:43 PM46.4 °F39.2 °F76 %30.10 in5.0 miESE (120°)5.8 mph16.1 mphHaze
3:51 PM46.0 °F39.9 °F79 %30.11 in5.0 miESE (110°)4.6 mphHaze
4:22 PM44.6 °F39.2 °F81 %30.12 in4.0 miSE (140°)5.8 mphHaze
4:51 PM44.1 °F39.0 °F82 %30.12 in4.0 miESE (110°)5.8 mphHaze
5:35 PM44.6 °F39.2 °F81 %30.13 in4.0 miENE (70°)4.6 mphHaze
5:51 PM44.1 °F39.9 °F85 %30.13 in4.0 miEast (90°)6.9 mphOvercast
6:51 PM43.0 °F39.9 °F89 %30.13 in4.0 miVariable4.6 mph0.04 inRainLight Rain
7:42 PM42.8 °F41.0 °F93 %30.13 in4.0 miCalm0.02 inRainLight Rain
7:51 PM43.0 °F41.0 °F93 %30.12 in4.0 miSE (130°)5.8 mph0.02 inRainLight Rain
8:28 PM42.8 °F41.0 °F93 %30.13 in4.0 miCalm0.00 inOvercast
8:51 PM43.0 °F41.0 °F93 %30.13 in4.0 miCalm0.00 inOvercast
9:41 PM44.6 °F41.0 °F87 %30.11 in4.0 miCalmOvercast
9:51 PM43.0 °F41.0 °F93 %30.11 in4.0 miCalmOvercast
10:51 PM43.0 °F41.0 °F93 %30.09 in3.0 miCalmOvercast
11:51 PM44.1 °F42.1 °F93 %30.09 in3.0 miENE (60°)4.6 mphOvercast
Hourly data recorded from KEWR, located miles away from Staten Island, New York







STORIES FROM OUR PARTNERS